www.pogodaiklimat.ru

Погода и климат >> Архив погоды >> Россия >> Эвенкия >> Кузьмовка


ПОГОДА в Кузьмовке

  • Прогноз погоды в Кузьмовке
  • Монитор погоды в Кузьмовке
  • Климат города

АРХИВ ПОГОДЫ в Кузьмовке

Время (UTC), дата Ветер
(напр.,м/с)
 
Видим.   Явления Облачность Т
(С)
Тd
(С)
f
(%)
Тe
(С)
Тes
(С)
Комфортность P
(гПа)
Po
(гПа)
Тmin
(С)
Tmax
(С)
R
(мм)
R24
(мм)
S
(см)
00 12.11 ЮВ 4 10 км слабый снег 10/0
[As op]
-22.0 -26.1 69 -31 -31 опасность
обморожения
1019.5 1010.9 -24.1 0.4 16
03 12.11 ЮВ 4 10 км слабый снег 10/0 2000 м
[As op]
-20.3 -24.4 70 -29 -29 1017.0 1008.5
06 12.11 ЮВ 4 4000 м слабый снег 10/0 2000 м
[As op]
-19.4 -23.5 70 -28 -28 1015.3 1006.8
09 12.11 ЮВ 3 4000 м слабый снег 10/0 2000 м
[As op]
-18.2 -21.5 75 -25 -25 1014.6 1006.2
21 12.11 Ю 3 4000 м слабый снег 10/0 2000 м
[As op]
-17.1 -20.5 75 -24 -24 1013.8 1005.4
00 13.11 Ю 2 4000 м слабый снег 10/0 2000 м
[As op]
-16.8 -19.4 80 -22 -22 1014.0 1005.6 -18.0 2 18
03 13.11 Ю 2 10 км слабый снег 10/0 2000 м
[Ac As]
-16.5 -19.1 80 -22 -22 1014.6 1006.2
06 13.11 Ю 1 10 км слабый снег 10/0 2000 м
[Ac As]
-15.0 -17.7 80 -18 -17 1016.0 1007.7
09 13.11 штиль 0 10 км слабый снег 10/0 2000 м
[Ac As]
-14.6 -17.3 80 -15 -15 1017.8 1009.5
12 13.11 С 1 н/о слабый снег 10/0
[Cs]
-18.2 -20.8 80 -21 -21 1020.8 1012.4 -14.5 0.8
15 13.11 В 1 20 км {снег} 3/0
[Ci fib]
-25.7 -28.1 80 -29 -29 1022.8 1014.1
18 13.11 штиль 0 20 км {снег} 3/0
[Ci fib]
-28.4 -30.8 80 -28 -28 1024.3 1015.4
00 14.11 Ю 1 10 км слабый снег 10/0
[Cs]
-23.0 -35.6 31 -26 -26 1022.1 1013.5 -29.5 0.0 18
03 14.11 Ю 1 4000 м слабый снег 10/0 2000 м
[As op]
-19.1 -21.7 80 -22 -22 1019.8 1011.3
06 14.11 Ю 2 4000 м слабый снег 10/0 2000 м
[As op]
-16.1 -18.8 80 -21 -21 1017.3 1009.0
09 14.11 Ю 2 10 км слабый снег 10/0 2000 м
[As op]
-14.4 -17.1 80 -19 -19 1015.7 1007.4
12 14.11 ЮВ 2 10 км слабый снег 10/0 2000 м
[As op]
-12.1 -14.1 85 -17 -17 1014.0 1005.8 -12.1 2
15 14.11 Ю 2 4000 м слабый снег 10/0 2000 м
[As op]
-10.2 -12.2 85 -15 -15 1012.2 1004.1
21 14.11 Ю 3 4000 м слабый снег 10/0
[As op]
0.0 -6.0 64 -4 -4 1007.3 999.4
00 15.11 ЮВ 4 4000 м слабый снег 10/0 2000 м
[As op]
-5.1 -5.1 100 -12 -12 1004.9 997.0 -12.1 4 28
03 15.11 Ю 3 4000 м слабый снег 10/0 2000 м
[As op]
-5.6 -6.7 92 -11 -11 1003.1 995.2
06 15.11 Ю 3 4000 м слабый снег 10/0 2000 м
[Ac As]
-5.0 -7.4 83 -10 -10 1002.9 995.0
09 15.11 Ю 2 4000 м слабый снег 10/0 2000 м
[Ac As]
-6.1 -8.9 81 -10 -10 1005.3 997.4
12 15.11 СЗ 5
{12}
10 км слабый снег {метель} 9/0 2000 м
[Ac As]
-9.4 -14.5 66 -17 -17 1010.0 1001.9 -4.8 3
15 15.11 З 5
{10}
10 км слабый снег {метель} 8/0 2000 м
[Ac As]
-13.6 -18.8 65 -22 -22 1014.9 1006.6
18 15.11 З 4 10 км слабый снег {метель} 10/0 2000 м
[As trans]
-15.6 -20.7 65 -24 -24 1017.8 1009.5
00 16.11 С 3 10 км слабый снег {метель} 10/0
[Cs]
-18.5 -23.5 65 -26 -26 1022.2 1013.8 -18.5 0.0 28
03 16.11 В 2 20 км {снег} 1/0 2000 м
[Ac und]
-25.5 -28.7 74 -32 -32 опасность
обморожения
1024.7 1015.9 -25.5
06 16.11 СЗ 3 20 км {снег} 1/0 2000 м
[Ac und]
-18.7 -23.7 65 -26 -26 1026.5 1018.0
09 16.11 С 1 20 км ясно -19.5 -24.4 65 -22 -22 1029.3 1020.7
21 16.11 штиль 0 10 км слабый снег 10/0 2000 м
[As op]
-23.3 -26.5 75 -23 -23 1031.9 1023.2
00 17.11 штиль 0 10 км слабый снег 10/0 2000 м
[As op]
-21.8 -25.0 75 -22 -22 1031.3 1022.6 -30.0 0.4 26
03 17.11 штиль 0 10 км слабый снег 10/0 2000 м
[As op]
-21.2 -24.5 75 -21 -21 1031.0 1022.4
06 17.11 Ю 1 10 км слабый снег 10/0 2000 м
[As op]
-19.5 -22.8 75 -22 -22 1030.4 1021.8
09 17.11 штиль 0 10 км слабый снег 10/0 600 м
[Ac As]
-19.9 -23.2 75 -20 -20 1029.7 1021.1
12 17.11 штиль 0 10 км слабый снег 10/0 2000 м
[Ac As]
-19.6 -22.2 80 -20 -20 1029.2 1020.6 -19.3 0.4
15 17.11 штиль 0 10 км слабый снег 10/0 2000 м
[Ac As]
-21.5 -24.0 80 -22 -22 1028.9 1020.2
18 17.11 штиль 0 20 км {снег} 9/0 2000 м
[Ac As]
-24.6 -27.2 79 -25 -25 1028.4 1019.6
00 18.11 Ю 1 20 км 10/0
[Ac As]
-26.0 -28.4 80 -30 -30 1027.8 1019.0 -27.8 0.0 25
03 18.11 штиль 0 20 км 10/0 2000 м
[Ac As]
-23.5 -26.0 80 -24 -24 1027.0 1018.3
06 18.11 Ю 1 20 км 10/0 2000 м
[Ac As]
-20.1 -22.7 80 -23 -23 1025.6 1017.0
09 18.11 ЮЗ 1 10 км слабый снег 10/0 2000 м
[As op]
-17.5 -20.1 80 -20 -20 1024.4 1015.9
12 18.11 Ю 1 10 км слабый снег 10/0 2000 м
[As op]
-15.7 -18.4 80 -18 -18 1023.2 1014.9 -15.7 0.9
15 18.11 Ю 1 10 км слабый снег 10/0 2000 м
[As op]
-15.7 -19.1 75 -18 -18 1022.4 1014.1
18 18.11 ЮВ 1 20 км {снег} 10/0
[As op]
-17.0 -19.6 80 -20 -20 1022.3 1013.9
21 18.11 В 1 10 км слабый снег 10/0 2000 м
[As op]
-19.2 -21.8 80 -22 -22 1021.9 1013.4

 

Местоположение метеостанции Кузьмовка (Эвенкия, Россия): широта 62.32 долгота 92.12 высота над уровнем моря 62 м.

В архиве по умолчанию представлена погода в Кузьмовке за последнюю неделю. Архивные данные за месяц целиком и за предыдущие месяцы, начиная с января 2011 года, Вы можете получить, выбрав интересующий диапазон дат из раскрывающегося списка и нажав кнопку "Ввод!".


*Определитесь, кто Вы:
робот инопланетянин человек

Внимание! Время в таблицах - всемирное. Для получения местного времени необходимо прибавить поправку, которая в Кузьмовке равна 7 ч.

Смотрите также архив погоды в соседних городах и на ближайших метеорологических станциях:

Погода в Боре (Красноярский край, Россия) (136 км)
Погода в Вельмо (Красноярский край, Россия) (160 км)
Погода в Бахте (Красноярский край, Россия) (162 км)
Погода в Ворогове (Красноярский край, Россия) (195 км)
Погода в Северо-Енисейском (Красноярский край, Россия) (221 км)
Погода в Тутончанах (Эвенкия, Россия) (225 км)
Погода в Верхнеимбатске (Красноярский край, Россия) (232 км)
Погода в Байките (Эвенкия, Россия) (233 км)
Погода в Ярцеве (Красноярский край, Россия) (248 км)
Погода в Сыме (Красноярский край, Россия) (297 км)

Пояснения к столбцам:

Ветер - указаны скорость ветра в м/с - средняя за 10 мин, порывы в срок и между сроками (в фигурных скобках) и направление, откуда дует ветер: С - северный, СВ - северо-восточный, В - восточный, ЮВ - юго-восточный, Ю - южный, ЮЗ - юго-западный, З - западный, СЗ - северо-западный.
Видимость - горизонтальная дальность видимости в метрах или километрах. При видимости от 1 до 10 км при отсутствии осадков обычно наблюдается дымка, при ухудшении видимости до 1 км и менее - туман. В сухую погоду видимость может ухудшаться дымом, пылью или мглою.
Явления - указаны атмосферные явления, наблюдавшиеся в срок или в последний час перед сроком; фигурными скобками обозначены явления, наблюдавшиеся между сроками (за 1-3 часа до срока); квадратными скобками обозначены град или гололедные отложения с указанием их диаметра в мм.
Облачность - указаны через наклонную черту общая и нижняя облачность в баллах и высота нижней границы облаков в метрах; квадратными скобками обозначены формы облаков: Ci - перистые, Cs - перисто-слоистые, Cc - перисто-кучевые, Ac - высококучевые, As - высокослоистые, Sc - слоисто-кучевые, Ns - слоисто-дождевые, Cu - кучевые, Cb - кучево-дождевые. Подробнее классификацию облаков см. в Атласе облаков (PDF).
T - Температура воздуха - температура, измеренная на высоте 2 м над землей.
Td - Температура точки росы - температура, при понижении до которой содержащийся в воздухе водяной пар достигнет насыщения.
f - Относительная влажность воздуха - влажноcть воздуха, измеренная на высоте 2 м над землей.
Te - Эффективная температура - температура, которую ощущает одетый по сезону человек в тени. Характеристика душности погоды. При расчете учитывается влияние влажности воздуха и скорости ветра на теплоощущения человека.
Tes - Эффективная температура на солнце - температура, которую ощущает человек, с поправкой на солнечный нагрев. Характеристика знойности погоды. Зависит от высоты солнца над горизонтом, облачности и скорости ветра. Ночью, в пасмурную погоду, а также при ветре 12 м/с и более поправка равна нулю.
P - Атмосферное давление - приведенное к уровню моря атмосферное давление.
Po - Атмосферное давление - измеренное на уровне метеостанции атмосферное давление.
Tmin - Минимальная температура - минимум температуры воздуха на высоте 2 м над землей.
Tmax - Максимальная температура - максимум температуры воздуха на высоте 2 м над землей.
R - Количество осадков - Количество выпавших осадков за период времени, мм. При наведении курсора мыши на число - период времени, за который выпало указанное количество осадков.
R24 - Количество осадков - Количество выпавших осадков за 24 часа, мм.
S - Снежный покров - Высота снежного покрова, см. При наведении курсора мыши на число - состояние снежного покрова и степень покрытия местности в баллах.